Previsão horária em Juma

Hoje, 23 Junho, Quarta-feira

Tempo Temperatura Precipitação Vento Pressão Humidade
00:00 +23°C° 0 mm 4 m/s 705 mmHg 20%
01:00 +22°C° 0 mm 4 m/s 704 mmHg 22%
02:00 +21°C° 0 mm 4 m/s 704 mmHg 23%
03:00 +21°C° 0 mm 4 m/s 704 mmHg 23%
04:00 +20°C° 0 mm 4 m/s 704 mmHg 25%
05:00 +22°C° 0 mm 4 m/s 705 mmHg 23%
06:00 +25°C° 0 mm 5 m/s 705 mmHg 21%
07:00 +27°C° 0 mm 6 m/s 705 mmHg 20%
08:00 +28°C° 0 mm 5 m/s 706 mmHg 18%
09:00 +30°C° 0 mm 5 m/s 706 mmHg 16%
10:00 +33°C° 0 mm 5 m/s 706 mmHg 14%
11:00 +34°C° 0 mm 5 m/s 706 mmHg 13%
12:00 +35°C° 0 mm 5 m/s 706 mmHg 12%
13:00 +36°C° 0 mm 6 m/s 705 mmHg 12%
14:00 +36°C° 0 mm 6 m/s 705 mmHg 11%
15:00 +36°C° 0 mm 6 m/s 705 mmHg 11%
16:00 +36°C° 0 mm 6 m/s 705 mmHg 11%
17:00 +35°C° 0 mm 6 m/s 705 mmHg 12%
18:00 +33°C° 0 mm 6 m/s 705 mmHg 13%
19:00 +30°C° 0 mm 6 m/s 704 mmHg 14%
20:00 +29°C° 0 mm 5 m/s 704 mmHg 16%
21:00 +27°C° 0 mm 5 m/s 704 mmHg 17%
22:00 +26°C° 0 mm 4 m/s 704 mmHg 19%
23:00 +26°C° 0 mm 4 m/s 704 mmHg 20%

Amanhã, 24 Junho, Quinta-feira

Tempo Temperatura Precipitação Vento Pressão Humidade
00:00 +25°C° 0 mm 4 m/s 704 mmHg 21%
01:00 +23°C° 0 mm 4 m/s 703 mmHg 23%
02:00 +23°C° 0 mm 4 m/s 703 mmHg 24%
03:00 +22°C° 0 mm 4 m/s 703 mmHg 25%
04:00 +22°C° 0 mm 3 m/s 703 mmHg 26%
05:00 +25°C° 0 mm 4 m/s 703 mmHg 24%
06:00 +27°C° 0 mm 4 m/s 704 mmHg 21%
07:00 +28°C° 0 mm 5 m/s 704 mmHg 19%
08:00 +30°C° 0 mm 4 m/s 704 mmHg 17%
09:00 +33°C° 0 mm 4 m/s 704 mmHg 15%
10:00 +35°C° 0 mm 4 m/s 704 mmHg 13%
11:00 +36°C° 0 mm 4 m/s 704 mmHg 12%
12:00 +37°C° 0 mm 4 m/s 704 mmHg 11%
13:00 +38°C° 0 mm 4 m/s 704 mmHg 10%
14:00 +39°C° 0 mm 5 m/s 704 mmHg 10%
15:00 +39°C° 0 mm 5 m/s 703 mmHg 10%
16:00 +39°C° 0 mm 6 m/s 703 mmHg 11%
17:00 +36°C° 0 mm 6 m/s 703 mmHg 12%
18:00 +34°C° 0 mm 6 m/s 703 mmHg 14%
19:00 +33°C° 0 mm 6 m/s 703 mmHg 16%
20:00 +30°C° 0 mm 5 m/s 703 mmHg 18%
21:00 +29°C° 0 mm 4 m/s 703 mmHg 20%
22:00 +28°C° 0 mm 3 m/s 703 mmHg 22%
23:00 +27°C° 0 mm 4 m/s 703 mmHg 25%

Depois de amanhã, 25 Junho, Sexta-feira

Tempo Temperatura Precipitação Vento Pressão Humidade
00:00 +27°C° 0 mm 5 m/s 702 mmHg 27%
01:00 +27°C° 0 mm 5 m/s 702 mmHg 30%
02:00 +26°C° 0 mm 5 m/s 702 mmHg 33%
03:00 +25°C° 0 mm 4 m/s 702 mmHg 36%
04:00 +24°C° 0 mm 3 m/s 702 mmHg 39%
05:00 +26°C° 0 mm 3 m/s 702 mmHg 37%
06:00 +27°C° 0 mm 4 m/s 703 mmHg 35%
07:00 +29°C° 0 mm 4 m/s 703 mmHg 32%
08:00 +30°C° 0 mm 4 m/s 703 mmHg 29%
09:00 +33°C° 0 mm 5 m/s 703 mmHg 26%
10:00 +35°C° 0 mm 5 m/s 703 mmHg 23%
11:00 +36°C° 0 mm 5 m/s 703 mmHg 22%
12:00 +36°C° 0 mm 5 m/s 702 mmHg 20%
13:00 +37°C° 0 mm 5 m/s 702 mmHg 18%
14:00 +37°C° 0 mm 5 m/s 702 mmHg 18%
15:00 +37°C° 0 mm 5 m/s 702 mmHg 18%
16:00 +38°C° 0 mm 6 m/s 701 mmHg 17%
17:00 +35°C° 0 mm 6 m/s 701 mmHg 17%
18:00 +33°C° 0 mm 7 m/s 701 mmHg 17%
19:00 +32°C° 0 mm 8 m/s 702 mmHg 17%
20:00 +29°C° 0 mm 7 m/s 701 mmHg 17%
21:00 +28°C° 0 mm 6 m/s 701 mmHg 17%
22:00 +27°C° 0 mm 5 m/s 701 mmHg 17%
23:00 +26°C° 0 mm 5 m/s 701 mmHg 18%

26 Junho, Sábado

Tempo Temperatura Precipitação Vento Pressão Humidade
00:00 +25°C° 0 mm 5 m/s 701 mmHg 19%
01:00 +23°C° 0 mm 4 m/s 701 mmHg 20%
02:00 +23°C° 0 mm 4 m/s 701 mmHg 21%
03:00 +22°C° 0 mm 4 m/s 701 mmHg 22%
04:00 +22°C° 0 mm 4 m/s 701 mmHg 24%
05:00 +23°C° 0 mm 5 m/s 701 mmHg 22%
06:00 +26°C° 0 mm 5 m/s 702 mmHg 21%
07:00 +27°C° 0 mm 6 m/s 702 mmHg 19%
08:00 +29°C° 0 mm 6 m/s 702 mmHg 18%
09:00 +32°C° 0 mm 5 m/s 702 mmHg 16%
10:00 +34°C° 0 mm 5 m/s 702 mmHg 14%
11:00 +35°C° 0 mm 5 m/s 702 mmHg 13%
12:00 +36°C° 0 mm 5 m/s 702 mmHg 13%
13:00 +38°C° 0 mm 6 m/s 702 mmHg 12%
14:00 +38°C° 0 mm 6 m/s 702 mmHg 12%
15:00 +38°C° 0 mm 6 m/s 702 mmHg 12%
16:00 +38°C° 0 mm 7 m/s 702 mmHg 12%
17:00 +35°C° 0 mm 6 m/s 702 mmHg 13%
18:00 +34°C° 0 mm 6 m/s 702 mmHg 14%
19:00 +32°C° 0 mm 6 m/s 702 mmHg 15%
20:00 +30°C° 0 mm 5 m/s 702 mmHg 16%
21:00 +29°C° 0 mm 5 m/s 702 mmHg 17%
22:00 +28°C° 0 mm 4 m/s 702 mmHg 19%
23:00 +27°C° 0 mm 4 m/s 702 mmHg 20%

27 Junho, Domingo

Tempo Temperatura Precipitação Vento Pressão Humidade
00:00 +26°C° 0 mm 4 m/s 701 mmHg 21%
01:00 +25°C° 0 mm 4 m/s 701 mmHg 23%
02:00 +25°C° 0 mm 4 m/s 701 mmHg 23%
03:00 +25°C° 0 mm 3 m/s 701 mmHg 24%
04:00 +24°C° 0 mm 3 m/s 701 mmHg 24%
05:00 +26°C° 0 mm 3 m/s 702 mmHg 22%
06:00 +28°C° 0 mm 3 m/s 702 mmHg 20%
07:00 +30°C° 0 mm 3 m/s 703 mmHg 17%
08:00 +33°C° 0 mm 3 m/s 703 mmHg 16%
09:00 +35°C° 0 mm 3 m/s 703 mmHg 14%
10:00 +37°C° 0 mm 2 m/s 703 mmHg 12%
11:00 +38°C° 0 mm 3 m/s 703 mmHg 12%
12:00 +39°C° 0 mm 3 m/s 703 mmHg 11%
13:00 +40°C° 0 mm 3 m/s 703 mmHg 11%
14:00 +41°C° 0 mm 4 m/s 702 mmHg 10%
15:00 +41°C° 0 mm 4 m/s 702 mmHg 10%
16:00 +41°C° 0 mm 5 m/s 702 mmHg 10%
17:00 +39°C° 0 mm 5 m/s 702 mmHg 12%
18:00 +37°C° 0 mm 5 m/s 702 mmHg 13%
19:00 +35°C° 0 mm 5 m/s 702 mmHg 15%
20:00 +33°C° 0 mm 5 m/s 702 mmHg 18%
21:00 +32°C° 0 mm 4 m/s 702 mmHg 21%
22:00 +30°C° 0 mm 3 m/s 702 mmHg 24%
23:00 +29°C° 0 mm 3 m/s 702 mmHg 24%

28 Junho, Segunda-feira

Tempo Temperatura Precipitação Vento Pressão Humidade
00:00 +28°C° 0 mm 4 m/s 702 mmHg 25%
01:00 +28°C° 0 mm 4 m/s 702 mmHg 25%
02:00 +27°C° 0 mm 4 m/s 702 mmHg 26%
03:00 +27°C° 0 mm 4 m/s 702 mmHg 26%
04:00 +27°C° 0 mm 4 m/s 702 mmHg 27%
05:00 +29°C° 0 mm 4 m/s 702 mmHg 24%
06:00 +30°C° 0 mm 4 m/s 703 mmHg 22%
07:00 +33°C° 0 mm 5 m/s 703 mmHg 19%
08:00 +35°C° 0 mm 5 m/s 703 mmHg 17%
09:00 +37°C° 0 mm 5 m/s 703 mmHg 15%
10:00 +40°C° 0 mm 5 m/s 703 mmHg 12%
11:00 +41°C° 0 mm 5 m/s 703 mmHg 12%
12:00 +41°C° 0 mm 5 m/s 703 mmHg 11%
13:00 +42°C° 0 mm 5 m/s 703 mmHg 11%
14:00 +41°C° 0 mm 6 m/s 703 mmHg 12%
15:00 +41°C° 0 mm 6 m/s 702 mmHg 12%
16:00 +40°C° 0 mm 6 m/s 702 mmHg 13%
17:00 +37°C° 0 mm 5 m/s 702 mmHg 16%
18:00 +35°C° 0 mm 5 m/s 702 mmHg 18%
19:00 +34°C° 0 mm 4 m/s 702 mmHg 21%
20:00 +33°C° 0 mm 4 m/s 702 mmHg 22%
21:00 +31°C° 0 mm 3 m/s 702 mmHg 22%
22:00 +30°C° 0 mm 3 m/s 702 mmHg 23%
23:00 +29°C° 0 mm 2 m/s 701 mmHg 24%
Mostrar mais

Necessitamos do seu Consentimento

A Meteoprog e os seus Fornecedores de Serviços podem armazenar e aceder a dados pessoais como cookies, identificadores do dispositivo ou outras tecnologias semelhantes existentes no seu dispositivo e processar estes dados para personalizar conteúdos e anúncios, assim como funcionalidades nas redes sociais e análise de tráfego.

  • Armazenar e/ou aceder a informações no seu dispositivo

    Os cookies, identificadores do dispositivo ou outras informações podem ser armazenados ou acedidos no seu dispositivo, para os fins acima indicados.

  • Anúncios e conteúdos personalizados, medição de anúncios e conteúdos, dados sobre o público-alvo e desenvolvimento de produtos

    Os anúncios e os conteúdos podem ser personalizados com base num perfil. Podem ser adicionados dados adicionais para uma maior personalização dos anúncios e dos conteúdos. A eficácia dos anúncios e dos conteúdos pode ser medida. Podem ser obtidas informações sobre o público que visualizou os anúncios e os conteúdos. Estes dados podem ser usados para desenvolver ou melhorar sistemas, softwares ou a experiência do utilizador.

Ao clicar em "Eu concordo”, permitirá o uso de cookies, identificadores do dispositivo e web beacons mencionados ou outras tecnologias semelhantes. As configurações do navegador do seu dispositivo podem ser alteradas.

Para certos fins, podem ser invocados interesses legítimos ao invés de consentimento. Pode ler mais informação sobre este assunto na nossa Política de Privacidade e Cookies.